Trieste, Italy

7:05 AM CEST on July 28, 2017 (GMT +0200)
Trieste

Weather History for LIVT - November, 2013

Change the Weather History Date:

Saturday, November 9, 2013

  Actual Average Record
Temperature  
Mean Temperature 62 °F -  
Max Temperature 66 °F 52 °F 66 °F (2005)
Min Temperature 58 °F 44 °F 42 °F (2001)
Degree Days  
Heating Degree Days 3    
Growing Degree Days 12 (Base 50)    
Moisture  
Dew Point 58 °F    
Average Humidity 81    
Maximum Humidity 94    
Minimum Humidity 70    
Precipitation  
Precipitation 0.01 in 0.14 in - ()
Sea Level Pressure  
Sea Level Pressure 29.86 in    
Wind  
Wind Speed 5 mph ()    
Max Wind Speed 9 mph    
Max Gust Speed 16 mph    
Visibility 6.2 miles    
Events      
Averages and records for this station are not official NWS values.
T = Trace of Precipitation, MM = Missing Value Source: Averaged Metar Reports

Daily Weather History Graph

Daily Weather History Graph

Search for Another Location

Airport or City:

Trip Planner

Search our weather history database for the weather conditions in past years. The results will help you decide how hot, cold, wet, or windy it might be!

Date:

Astronomy

Nov. 09, 2013 Rise Set
Actual Time 6:56 AM CET 4:41 PM CET
Civil Twilight 6:24 AM CET 5:12 PM CET
Nautical Twilight 5:48 AM CET 5:48 PM CET
Astronomical Twilight 5:13 AM CET 6:23 PM CET
Moon 12:19 PM CET (11/9) 10:54 PM CET (11/9)
Length of Visible Light 10h 48m
Length of Day
9h 45m
Waxing Crescent, 41% of the Moon is Illuminated
Nov 9
Waxing Crescent
Nov 10
First Quarter
Nov 17
Full
Nov 25
Last Quarter
Dec 3
New

Hourly Weather History & Observations

Time (CET) Temp. Dew Point Humidity Pressure Visibility Wind Dir Wind Speed Gust Speed Precip Events Conditions
12:55 AM 60.8 °F 57.2 °F 88% 29.95 in - ENE 9.2 mph - N/A   Clear
1:00 AM 61 °F 57 °F 81% 29.96 in 6 mi ENE 9.2 mph - -   Partly Cloudy
1:55 AM 62.6 °F 57.2 °F 82% 29.95 in - ENE 4.6 mph - N/A   Clear
2:55 AM 62.6 °F 57.2 °F 82% 29.92 in - SE 2.3 mph - N/A   Clear
3:55 AM 62.6 °F 59.0 °F 88% 29.92 in - East 4.6 mph - N/A   Clear
4:55 AM 64.4 °F 57.2 °F 77% 29.89 in - East 5.8 mph - N/A   Clear
5:55 AM 64.4 °F 57.2 °F 77% 29.89 in - East 5.8 mph - N/A   Clear
6:55 AM 64.4 °F 57.2 °F 77% 29.89 in 6.2 mi East 5.8 mph - N/A   Scattered Clouds
7:00 AM 64 °F 57 °F 73% 29.90 in 6 mi East 5.8 mph - -   Overcast
7:55 AM 64.4 °F 57.2 °F 77% 29.89 in 6.2 mi East 4.6 mph - N/A   Mostly Cloudy
8:55 AM 64.4 °F 57.2 °F 77% 29.89 in 6.2 mi East 4.6 mph 16.1 mph N/A   Mostly Cloudy
9:55 AM 64.4 °F 59.0 °F 83% 29.89 in 6.2 mi ESE 5.8 mph - N/A   Mostly Cloudy
10:55 AM 66.2 °F 59.0 °F 78% 29.86 in 6.2 mi ESE 3.5 mph - N/A   Mostly Cloudy
11:55 AM 66.2 °F 59.0 °F 78% 29.86 in 6.2 mi SE 3.5 mph - N/A   Mostly Cloudy
12:55 PM 66.2 °F 59.0 °F 78% 29.86 in 6.2 mi SE 3.5 mph - N/A   Mostly Cloudy
1:00 PM 66 °F 58 °F 70% 29.87 in 6 mi SE 3.5 mph - -   Partly Cloudy
1:55 PM 66.2 °F 59.0 °F 78% 29.83 in 6.2 mi NNE 2.3 mph - N/A   Mostly Cloudy
2:55 PM 66.2 °F 59.0 °F 78% 29.83 in 6.2 mi SE 4.6 mph - N/A   Mostly Cloudy
3:55 PM 66.2 °F 60.8 °F 83% 29.83 in 6.2 mi South 6.9 mph - N/A   Mostly Cloudy
4:55 PM 64.4 °F 60.8 °F 88% 29.80 in 6.2 mi SE 5.8 mph - N/A   Mostly Cloudy
5:55 PM 64.4 °F 60.8 °F 88% 29.80 in 6.2 mi East 3.5 mph - N/A   Mostly Cloudy
6:55 PM 64.4 °F 60.8 °F 88% 29.80 in 6.2 mi ESE 5.8 mph - N/A   Scattered Clouds
7:00 PM 65 °F 61 °F 82% 29.82 in 6 mi ESE 5.8 mph - -   Partly Cloudy
7:55 PM 64.4 °F 59.0 °F 83% 29.80 in 6.2 mi SE 6.9 mph - N/A   Scattered Clouds
8:55 PM 62.6 °F 59.0 °F 88% 29.83 in 6.2 mi East 4.6 mph - N/A   Scattered Clouds
9:55 PM 62.6 °F 57.2 °F 82% 29.80 in 6.2 mi East 2.3 mph - N/A   Scattered Clouds
10:55 PM 62.6 °F 55.4 °F 77% 29.80 in 6.2 mi SE 3.5 mph - N/A   Scattered Clouds
11:55 PM 60.8 °F 59.0 °F 94% 29.80 in 6.2 mi West 2.3 mph - N/A   Scattered Clouds